DELTA 1 DEB, 10220

Orbit data source: Space-Track

DELTA 1 DEB, 10220 is space debris in LEO originally from a launch on Thu, 14 Jul 1977 UTC launched from the Air Force Eastern Test Range (AFETR). Debris objects in space refer to the collection of defunct objects orbiting the Earth. Examples of debris include non-operational satellites, rocket bodies, and fragments generated from explosions, collisions, or faulty payload assembly.

Loading next visibility...
Identifier
10220, 1977-065AX
Orbit
LEO
Country
Flag of USUS
Related business
Manufacturer
Unknown
Mission
Spacecraft
Bus & Motor
Unknown
Mass
Unknown
Launch date (UTC)
1977-07-14 (48 years ago)
Launch vehicle
Unknown
Launch site
Air Force Eastern Test Range (AFETR)
Object type
Payload
Rocket body
Debris
Shape & HBR
Unknown shape, 0.1 m
Radar Cross Section
Small (<0.1 m²)

Expand to show TLE details & history
Last TLE update: 14 hours ago

TLE from 14 hours ago
0 DELTA 1 DEB
1 10220U 77065AX  25349.57250405  .00011506  00000-0  35500-2 0  9999
2 10220  29.1377  66.1055 0363458 229.4968 127.3398 14.08432034350604
Epoch: 2025-12-15T13:44Z
TLE epoch observation values (Epoch: 2025-12-15T13:44:24.349Z)
Latitude
-0.00001°
Longitude
135.53488°
Altitude
1,028.618 km
Speed
7.256 km/s
True Right ascension
04h 24m 25s
True Declination
0° 00' 00"
Sunlit
Object was in full shadow at epoch
Visualization orbit readout
Latitude
Unknown
Longitude
Unknown
Altitude
Unknown
Speed
Unknown
Apparent Right ascension
Unknown
Apparent Declination
Unknown
Sunlit
N/A
Visualization observer readout
Local Sidereal Time
02:45:23
Azimuth
Unknown
Elevation
Unknown
Doppler factor
Unknown
Orbital elements
Apogee altitude
1,132.065 km
Perigee altitude
605.283 km
Semi-major axis
7,246.811 km
Eccentricity
0.03635
Inclination
29.1377°
RAAN
66.1055°
Arg. of periapsis
229.4968°
True anomaly
130.56055°
Mean anomaly
127.3398°
Eccentric anomaly
128.95911°
Mean motion
3.51822 °/min
Orbital period
102.32 mins
BSTAR
0.00355
Loading maneuver chart data...
Computing Atmospheric mass density...

Documentation

Showing up to 5 results
|